Showing default

FLOCK 4BE 7, 60481

Orbit data source: Space-Track

FLOCK 4BE 7, 60481 is a payload satellite owned by Planet (US) in SSO that was launched on Fri, 16 Aug 2024 UTC via an FALCON 9 launch vehicle from the Air Force Western Test Range (AFWTR). Payload-class satellites include a variety of spacecraft equipped with specific instruments for various scientific and technological missions. These include communications satellites like Starlink; space stations such as the ISS; scientific satellites like the Hubble; Earth observation satellites from companies like Planet Labs, Umbra, and HawkEye 360; GPS; miniature CubeSats for education and research; and military/defense satellites.

Loading next visibility...
Identifier
60481, 2024-149P
Orbit
SSO
Country
Flag of USUS
Related business
Manufacturer
Planet
Mission
Operational Commercial Imaging
Bus & Motor
CUBESAT 3U, Unknown motor
Mass
5.7 kg wet, 5.7 kg dry
Launch date (UTC)
2024-08-16 (1 year ago)
Launch vehicle
FALCON 9
Launch site
Air Force Western Test Range (AFWTR)
Object type
Payload
Rocket body
Debris
Shape & HBR
Box + 2 Pan, 1.0 m
Radar Cross Section
0.072 m², Medium (>0.1 m² and < 1m²)

Expand to show TLE details & history
Last TLE update: 1 day ago

TLE from 1 day ago
0 FLOCK 4BE 7
1 60481U 24149P   25301.45211204  .00018661  00000-0  62147-3 0  9994
2 60481  97.3983  18.8952 0003538  28.4407 331.7027 15.31166293 66683
Epoch: 2025-10-28T10:51Z
TLE epoch observation values (Epoch: 2025-10-28T10:51:02.480Z)
Latitude
0.00002°
Longitude
179.09546°
Altitude
473.303 km
Speed
7.63 km/s
True Right ascension
01h 15m 34s
True Declination
0° 00' 00"
Sunlit
Object was in full shadow at epoch
Visualization orbit readout
Latitude
Unknown
Longitude
Unknown
Altitude
Unknown
Speed
Unknown
Apparent Right ascension
Unknown
Apparent Declination
Unknown
Sunlit
N/A
Visualization observer readout
Local Sidereal Time
08:25:53
Azimuth
Unknown
Elevation
Unknown
Doppler factor
Unknown
Orbital elements
Apogee altitude
471.705 km
Perigee altitude
466.859 km
Semi-major axis
6,847.419 km
Eccentricity
0.00035
Inclination
97.3983°
RAAN
18.8952°
Arg. of periapsis
28.4407°
True anomaly
331.68347°
Mean anomaly
331.7027°
Eccentric anomaly
331.69309°
Mean motion
3.83048 °/min
Orbital period
93.98 mins
BSTAR
0.00062147
Loading maneuver chart data...
Computing Atmospheric mass density...
Loading historical data...
Loading historical data...
Loading historical data...
Loading historical data...
Loading historical data...
Loading historical data...
Loading historical data...

Documentation

Showing up to 5 results
|